Wetterdaten: Samstag, 27.02.2010
Datum Zeit Temp. A. Feuchte A. Luftdruck Regen Wind Richtung Richtung Sonnenschein UV Solar Windben
27.02.2010 00:00 4,6 C 84 % 998,3 hPa 0,0 mm 4,8 km/h (1 Bft) SW 225 0 min 0 UV-I 0 W/m 11,3 km/h (2 Bft)
27.02.2010 00:10 4,6 C 84 % 998,4 hPa 0,0 mm 6,4 km/h (2 Bft) SW 225 0 min 0 UV-I 0 W/m 17,7 km/h (3 Bft)
27.02.2010 00:20 4,6 C 83 % 998,4 hPa 0,0 mm 6,4 km/h (2 Bft) SW 225 0 min 0 UV-I 0 W/m 27,4 km/h (4 Bft)
27.02.2010 00:30 4,7 C 82 % 998,5 hPa 0,0 mm 8,0 km/h (2 Bft) W-SW 247 0 min 0 UV-I 0 W/m 24,1 km/h (4 Bft)
27.02.2010 00:40 4,7 C 81 % 998,6 hPa 0,0 mm 9,7 km/h (2 Bft) W-SW 247 0 min 0 UV-I 0 W/m 30,6 km/h (5 Bft)
27.02.2010 00:50 4,8 C 80 % 998,8 hPa 0,0 mm 9,7 km/h (2 Bft) W-SW 247 0 min 0 UV-I 0 W/m 27,4 km/h (4 Bft)
27.02.2010 01:00 4,8 C 78 % 999,0 hPa 0,0 mm 11,3 km/h (2 Bft) SW 225 0 min 0 UV-I 0 W/m 29,0 km/h (5 Bft)
27.02.2010 01:10 4,9 C 78 % 998,9 hPa 0,0 mm 11,3 km/h (2 Bft) SW 225 0 min 0 UV-I 0 W/m 29,0 km/h (5 Bft)
27.02.2010 01:20 4,9 C 78 % 999,1 hPa 0,0 mm 8,0 km/h (2 Bft) S-SW 202 0 min 0 UV-I 0 W/m 24,1 km/h (4 Bft)
27.02.2010 01:30 4,9 C 77 % 999,3 hPa 0,0 mm 11,3 km/h (2 Bft) W-SW 247 0 min 0 UV-I 0 W/m 27,4 km/h (4 Bft)
27.02.2010 01:40 4,9 C 77 % 999,3 hPa 0,0 mm 8,0 km/h (2 Bft) W-SW 247 0 min 0 UV-I 0 W/m 22,5 km/h (4 Bft)
27.02.2010 01:50 4,9 C 77 % 999,4 hPa 0,0 mm 8,0 km/h (2 Bft) W-SW 247 0 min 0 UV-I 0 W/m 27,4 km/h (4 Bft)
27.02.2010 02:00 4,8 C 76 % 999,4 hPa 0,0 mm 9,7 km/h (2 Bft) W-SW 247 0 min 0 UV-I 0 W/m 29,0 km/h (5 Bft)
27.02.2010 02:10 4,8 C 76 % 999,4 hPa 0,0 mm 8,0 km/h (2 Bft) W-SW 247 0 min 0 UV-I 0 W/m 17,7 km/h (3 Bft)
27.02.2010 02:20 4,7 C 76 % 999,4 hPa 0,0 mm 8,0 km/h (2 Bft) W-SW 247 0 min 0 UV-I 0 W/m 24,1 km/h (4 Bft)
27.02.2010 02:30 4,7 C 76 % 999,4 hPa 0,0 mm 8,0 km/h (2 Bft) W-SW 247 0 min 0 UV-I 0 W/m 22,5 km/h (4 Bft)
27.02.2010 02:40 4,7 C 76 % 999,4 hPa 0,0 mm 8,0 km/h (2 Bft) SW 225 0 min 0 UV-I 0 W/m 24,1 km/h (4 Bft)
27.02.2010 02:50 4,7 C 76 % 999,4 hPa 0,0 mm 8,0 km/h (2 Bft) SW 225 0 min 0 UV-I 0 W/m 25,7 km/h (4 Bft)
27.02.2010 03:00 4,8 C 76 % 999,6 hPa 0,0 mm 8,0 km/h (2 Bft) W-SW 247 0 min 0 UV-I 0 W/m 24,1 km/h (4 Bft)
27.02.2010 03:10 4,8 C 76 % 999,6 hPa 0,0 mm 4,8 km/h (1 Bft) SW 225 0 min 0 UV-I 0 W/m 17,7 km/h (3 Bft)
27.02.2010 03:20 4,8 C 76 % 999,8 hPa 0,0 mm 6,4 km/h (2 Bft) W-SW 247 0 min 0 UV-I 0 W/m 19,3 km/h (3 Bft)
27.02.2010 03:30 4,8 C 76 % 999,8 hPa 0,0 mm 6,4 km/h (2 Bft) SW 225 0 min 0 UV-I 0 W/m 20,9 km/h (4 Bft)
27.02.2010 03:40 4,7 C 76 % 999,9 hPa 0,0 mm 8,0 km/h (2 Bft) W-SW 247 0 min 0 UV-I 0 W/m 19,3 km/h (3 Bft)
27.02.2010 03:50 4,7 C 76 % 999,9 hPa 0,0 mm 6,4 km/h (2 Bft) SW 225 0 min 0 UV-I 0 W/m 29,0 km/h (5 Bft)
27.02.2010 04:00 4,7 C 76 % 1000,0 hPa 0,0 mm 6,4 km/h (2 Bft) SW 225 0 min 0 UV-I 0 W/m 20,9 km/h (4 Bft)
27.02.2010 04:10 4,6 C 77 % 1000,1 hPa 0,0 mm 6,4 km/h (2 Bft) SW 225 0 min 0 UV-I 0 W/m 17,7 km/h (3 Bft)
27.02.2010 04:20 4,6 C 77 % 1000,1 hPa 0,0 mm 4,8 km/h (1 Bft) SW 225 0 min 0 UV-I 0 W/m 19,3 km/h (3 Bft)
27.02.2010 04:30 4,6 C 77 % 1000,1 hPa 0,0 mm 4,8 km/h (1 Bft) W-SW 247 0 min 0 UV-I 0 W/m 17,7 km/h (3 Bft)
27.02.2010 04:40 4,6 C 77 % 1000,2 hPa 0,0 mm 4,8 km/h (1 Bft) SW 225 0 min 0 UV-I 0 W/m 14,5 km/h (3 Bft)
27.02.2010 04:50 4,6 C 77 % 1000,3 hPa 0,0 mm 4,8 km/h (1 Bft) S-SW 202 0 min 0 UV-I 0 W/m 12,9 km/h (3 Bft)
27.02.2010 05:00 4,6 C 77 % 1000,4 hPa 0,0 mm 4,8 km/h (1 Bft) SW 225 0 min 0 UV-I 0 W/m 16,1 km/h (3 Bft)
27.02.2010 05:10 4,6 C 78 % 1000,5 hPa 0,0 mm 6,4 km/h (2 Bft) S-SW 202 0 min 0 UV-I 0 W/m 22,5 km/h (4 Bft)
27.02.2010 05:20 4,6 C 78 % 1000,5 hPa 0,0 mm 6,4 km/h (2 Bft) SW 225 0 min 0 UV-I 0 W/m 22,5 km/h (4 Bft)
27.02.2010 05:30 4,6 C 78 % 1000,6 hPa 0,0 mm 6,4 km/h (2 Bft) W-SW 247 0 min 0 UV-I 0 W/m 17,7 km/h (3 Bft)
27.02.2010 05:40 4,6 C 78 % 1000,6 hPa 0,0 mm 8,0 km/h (2 Bft) SW 225 0 min 0 UV-I 0 W/m 25,7 km/h (4 Bft)
27.02.2010 05:50 4,7 C 78 % 1000,7 hPa 0,0 mm 6,4 km/h (2 Bft) W-SW 247 0 min 0 UV-I 0 W/m 19,3 km/h (3 Bft)
27.02.2010 06:00 4,7 C 78 % 1000,7 hPa 0,0 mm 6,4 km/h (2 Bft) W-SW 247 0 min 0 UV-I 0 W/m 17,7 km/h (3 Bft)
27.02.2010 06:10 4,7 C 78 % 1000,8 hPa 0,0 mm 4,8 km/h (1 Bft) SW 225 0 min 0 UV-I 0 W/m 16,1 km/h (3 Bft)
27.02.2010 06:20 4,7 C 78 % 1000,8 hPa 0,0 mm 3,2 km/h (1 Bft) SW 225 0 min 0 UV-I 0 W/m 11,3 km/h (2 Bft)
27.02.2010 06:30 4,6 C 78 % 1000,8 hPa 0,0 mm 4,8 km/h (1 Bft) SW 225 0 min 0 UV-I 0 W/m 14,5 km/h (3 Bft)
27.02.2010 06:40 4,5 C 78 % 1000,8 hPa 0,0 mm 6,4 km/h (2 Bft) SW 225 0 min 0 UV-I 0 W/m 20,9 km/h (4 Bft)
27.02.2010 06:50 4,4 C 78 % 1000,9 hPa 0,0 mm 4,8 km/h (1 Bft) SW 225 0 min 0 UV-I 0 W/m 16,1 km/h (3 Bft)
27.02.2010 07:00 4,3 C 78 % 1001,0 hPa 0,0 mm 4,8 km/h (1 Bft) S-SW 202 0 min 0 UV-I 0 W/m 16,1 km/h (3 Bft)
27.02.2010 07:10 4,3 C 79 % 1001,0 hPa 0,0 mm 3,2 km/h (1 Bft) SW 225 0 min 0 UV-I 0 W/m 17,7 km/h (3 Bft)
27.02.2010 07:20 4,2 C 79 % 1001,1 hPa 0,0 mm 3,2 km/h (1 Bft) W-SW 247 0 min 0 UV-I 0 W/m 11,3 km/h (2 Bft)
27.02.2010 07:30 4,2 C 79 % 1001,2 hPa 0,0 mm 3,2 km/h (1 Bft) W-SW 247 0 min 0 UV-I 5 W/m 14,5 km/h (3 Bft)
27.02.2010 07:40 4,2 C 80 % 1001,2 hPa 0,0 mm 4,8 km/h (1 Bft) SW 225 0 min 0 UV-I 7 W/m 17,7 km/h (3 Bft)
27.02.2010 07:50 4,3 C 80 % 1001,3 hPa 0,0 mm 3,2 km/h (1 Bft) SW 225 0 min 0 UV-I 12 W/m 11,3 km/h (2 Bft)
27.02.2010 08:00 4,5 C 80 % 1001,3 hPa 0,0 mm 3,2 km/h (1 Bft) S 190 0 min 0 UV-I 27 W/m 6,4 km/h (2 Bft)
27.02.2010 08:10 4,5 C 79 % 1001,3 hPa 0,0 mm 1,6 km/h (1 Bft) S-SW 202 0 min 0 UV-I 28 W/m 8,0 km/h (2 Bft)
27.02.2010 08:20 4,7 C 79 % 1001,3 hPa 0,0 mm 3,8 km/h (1 Bft) W-SW 246 0 min 0 UV-I 35 W/m 9,7 km/h (2 Bft)
27.02.2010 08:30 4,8 C 78 % 1001,4 hPa 0,0 mm 4,2 km/h (1 Bft) W-SW 248 0 min 0 UV-I 37 W/m 17,7 km/h (3 Bft)
27.02.2010 08:40 5,1 C 78 % 1001,3 hPa 0,0 mm 4,6 km/h (1 Bft) W-SW 257 0 min 0 UV-I 60 W/m 16,1 km/h (3 Bft)
27.02.2010 08:50 5,3 C 77 % 1001,3 hPa 0,0 mm 3,1 km/h (1 Bft) S-SW 207 0 min 0 UV-I 85 W/m 11,3 km/h (2 Bft)
27.02.2010 09:00 5,8 C 75 % 1001,3 hPa 0,0 mm 4,3 km/h (1 Bft) S-SW 209 10 min 1 UV-I 192 W/m 14,5 km/h (3 Bft)
27.02.2010 09:10 6,3 C 74 % 1001,2 hPa 0,0 mm 4,9 km/h (1 Bft) W 275 10 min 1 UV-I 219 W/m 20,9 km/h (4 Bft)
27.02.2010 09:20 6,4 C 74 % 1001,2 hPa 0,0 mm 3,2 km/h (1 Bft) SW 225 10 min 1 UV-I 269 W/m 14,5 km/h (3 Bft)
27.02.2010 09:30 6,8 C 72 % 1001,2 hPa 0,0 mm 4,8 km/h (1 Bft) SW 225 10 min 1 UV-I 283 W/m 17,7 km/h (3 Bft)
27.02.2010 09:40 7,1 C 71 % 1001,2 hPa 0,0 mm 6,4 km/h (2 Bft) SW 225 10 min 1 UV-I 308 W/m 17,7 km/h (3 Bft)
27.02.2010 09:50 7,2 C 71 % 1001,3 hPa 0,0 mm 8,0 km/h (2 Bft) SW 225 10 min 1 UV-I 360 W/m 20,9 km/h (4 Bft)
27.02.2010 10:00 7,4 C 70 % 1001,2 hPa 0,0 mm 8,0 km/h (2 Bft) SW 225 10 min 1 UV-I 429 W/m 22,5 km/h (4 Bft)
27.02.2010 10:10 7,3 C 71 % 1001,3 hPa 0,0 mm 9,7 km/h (2 Bft) SW 225 0 min 1 UV-I 167 W/m 27,4 km/h (4 Bft)
27.02.2010 10:20 7,2 C 72 % 1001,3 hPa 0,0 mm 6,4 km/h (2 Bft) SW 225 0 min 1 UV-I 211 W/m 19,3 km/h (3 Bft)
27.02.2010 10:30 7,3 C 72 % 1001,4 hPa 0,0 mm 8,0 km/h (2 Bft) SW 225 10 min 1 UV-I 283 W/m 27,4 km/h (4 Bft)
27.02.2010 10:40 7,3 C 72 % 1001,4 hPa 0,0 mm 8,0 km/h (2 Bft) W-SW 247 0 min 1 UV-I 206 W/m 25,7 km/h (4 Bft)
27.02.2010 10:50 7,4 C 73 % 1001,5 hPa 0,0 mm 8,0 km/h (2 Bft) S-SW 202 0 min 2 UV-I 225 W/m 24,1 km/h (4 Bft)
27.02.2010 11:00 7,7 C 71 % 1001,5 hPa 0,0 mm 6,4 km/h (2 Bft) SW 225 10 min 2 UV-I 499 W/m 19,3 km/h (3 Bft)
27.02.2010 11:10 7,6 C 73 % 1001,5 hPa 0,0 mm 8,0 km/h (2 Bft) SW 225 0 min 1 UV-I 220 W/m 20,9 km/h (4 Bft)
27.02.2010 11:20 7,4 C 74 % 1001,5 hPa 0,0 mm 8,0 km/h (2 Bft) S-SW 202 0 min 1 UV-I 178 W/m 24,1 km/h (4 Bft)
27.02.2010 11:30 7,4 C 73 % 1001,5 hPa 0,0 mm 9,7 km/h (2 Bft) S-SW 202 0 min 1 UV-I 195 W/m 24,1 km/h (4 Bft)
27.02.2010 11:40 7,6 C 73 % 1001,5 hPa 0,0 mm 9,7 km/h (2 Bft) SW 225 0 min 1 UV-I 216 W/m 22,5 km/h (4 Bft)
27.02.2010 11:50 7,6 C 73 % 1001,5 hPa 0,0 mm 8,0 km/h (2 Bft) SW 225 0 min 1 UV-I 165 W/m 27,4 km/h (4 Bft)
27.02.2010 12:00 7,7 C 73 % 1001,4 hPa 0,0 mm 6,4 km/h (2 Bft) SW 225 0 min 1 UV-I 195 W/m 24,1 km/h (4 Bft)
27.02.2010 12:10 7,8 C 71 % 1001,5 hPa 0,0 mm 9,7 km/h (2 Bft) SW 225 0 min 1 UV-I 178 W/m 25,7 km/h (4 Bft)
27.02.2010 12:20 7,9 C 71 % 1001,6 hPa 0,0 mm 8,0 km/h (2 Bft) W-SW 247 0 min 1 UV-I 188 W/m 22,5 km/h (4 Bft)
27.02.2010 12:30 8,1 C 72 % 1001,5 hPa 0,0 mm 8,0 km/h (2 Bft) SW 225 0 min 1 UV-I 158 W/m 19,3 km/h (3 Bft)
27.02.2010 12:40 7,9 C 73 % 1001,6 hPa 0,0 mm 6,4 km/h (2 Bft) SW 225 0 min 1 UV-I 149 W/m 20,9 km/h (4 Bft)
27.02.2010 12:50 7,8 C 74 % 1001,5 hPa 0,0 mm 6,4 km/h (2 Bft) SW 225 0 min 1 UV-I 100 W/m 20,9 km/h (4 Bft)
27.02.2010 13:00 7,8 C 73 % 1001,3 hPa 0,0 mm 6,4 km/h (2 Bft) SW 225 0 min 1 UV-I 127 W/m 19,3 km/h (3 Bft)
27.02.2010 13:10 8,1 C 73 % 1001,3 hPa 0,0 mm 6,4 km/h (2 Bft) SW 225 0 min 1 UV-I 128 W/m 24,1 km/h (4 Bft)
27.02.2010 13:20 8,2 C 72 % 1001,2 hPa 0,0 mm 4,8 km/h (1 Bft) SW 225 0 min 1 UV-I 111 W/m 22,5 km/h (4 Bft)
27.02.2010 13:30 8,3 C 71 % 1001,3 hPa 0,0 mm 6,4 km/h (2 Bft) W-SW 247 0 min 1 UV-I 132 W/m 22,5 km/h (4 Bft)
27.02.2010 13:40 8,4 C 71 % 1001,2 hPa 0,0 mm 4,8 km/h (1 Bft) SW 225 0 min 1 UV-I 132 W/m 20,9 km/h (4 Bft)
27.02.2010 13:50 8,6 C 71 % 1001,0 hPa 0,0 mm 6,4 km/h (2 Bft) W-SW 247 0 min 1 UV-I 100 W/m 19,3 km/h (3 Bft)
27.02.2010 14:00 8,5 C 70 % 1001,0 hPa 0,0 mm 6,4 km/h (2 Bft) W-SW 247 0 min 0 UV-I 67 W/m 19,3 km/h (3 Bft)
27.02.2010 14:10 8,6 C 71 % 1000,8 hPa 0,0 mm 4,8 km/h (1 Bft) W-SW 247 0 min 0 UV-I 76 W/m 17,7 km/h (3 Bft)
27.02.2010 14:20 8,5 C 71 % 1000,8 hPa 0,0 mm 4,8 km/h (1 Bft) W-SW 247 0 min 0 UV-I 62 W/m 16,1 km/h (3 Bft)
27.02.2010 14:30 8,5 C 71 % 1000,9 hPa 0,0 mm 4,8 km/h (1 Bft) SW 225 0 min 1 UV-I 93 W/m 17,7 km/h (3 Bft)
27.02.2010 14:40 8,6 C 71 % 1000,9 hPa 0,0 mm 4,8 km/h (1 Bft) SW 225 0 min 1 UV-I 125 W/m 11,3 km/h (2 Bft)
27.02.2010 14:50 8,8 C 70 % 1000,7 hPa 0,0 mm 3,2 km/h (1 Bft) SW 225 0 min 1 UV-I 156 W/m 11,3 km/h (2 Bft)
27.02.2010 15:00 9,0 C 70 % 1000,6 hPa 0,0 mm 3,2 km/h (1 Bft) SW 225 0 min 1 UV-I 114 W/m 11,3 km/h (2 Bft)
27.02.2010 15:10 9,1 C 70 % 1000,4 hPa 0,0 mm 4,8 km/h (1 Bft) SW 225 0 min 1 UV-I 132 W/m 14,5 km/h (3 Bft)
27.02.2010 15:20 9,3 C 70 % 1000,2 hPa 0,0 mm 1,6 km/h (1 Bft) SW 225 0 min 1 UV-I 130 W/m 8,0 km/h (2 Bft)
27.02.2010 15:30 9,4 C 69 % 1000,2 hPa 0,0 mm 3,2 km/h (1 Bft) SW 225 0 min 1 UV-I 125 W/m 14,5 km/h (3 Bft)
27.02.2010 15:40 9,6 C 69 % 999,9 hPa 0,0 mm 3,2 km/h (1 Bft) SW 225 0 min 1 UV-I 160 W/m 9,7 km/h (2 Bft)
27.02.2010 15:50 9,6 C 69 % 999,8 hPa 0,0 mm 1,6 km/h (1 Bft) SW 225 0 min 1 UV-I 141 W/m 9,7 km/h (2 Bft)
27.02.2010 16:00 9,7 C 68 % 999,6 hPa 0,0 mm 3,2 km/h (1 Bft) SW 225 0 min 1 UV-I 107 W/m 9,7 km/h (2 Bft)
27.02.2010 16:10 9,8 C 68 % 999,5 hPa 0,0 mm 1,6 km/h (1 Bft) SW 225 0 min 1 UV-I 139 W/m 6,4 km/h (2 Bft)
27.02.2010 16:20 9,8 C 68 % 999,3 hPa 0,0 mm 1,6 km/h (1 Bft) SW 225 0 min 0 UV-I 91 W/m 4,8 km/h (1 Bft)
27.02.2010 16:30 9,8 C 69 % 999,2 hPa 0,0 mm 0,0 km/h (0 Bft) S-SW 202 0 min 0 UV-I 107 W/m 1,6 km/h (1 Bft)
27.02.2010 16:40 9,9 C 68 % 999,2 hPa 0,0 mm 0,0 km/h (0 Bft) S 180 10 min 0 UV-I 113 W/m 3,2 km/h (1 Bft)
27.02.2010 16:50 9,9 C 68 % 999,1 hPa 0,0 mm 0,0 km/h (0 Bft) S 180 10 min 0 UV-I 102 W/m 6,4 km/h (2 Bft)
27.02.2010 17:00 9,7 C 69 % 999,0 hPa 0,0 mm 0,0 km/h (0 Bft) S 180 0 min 0 UV-I 53 W/m 4,8 km/h (1 Bft)
27.02.2010 17:10 9,6 C 70 % 998,9 hPa 0,0 mm 1,6 km/h (1 Bft) O-SO 112 0 min 0 UV-I 51 W/m 6,4 km/h (2 Bft)
27.02.2010 17:20 9,2 C 71 % 998,9 hPa 0,0 mm 1,6 km/h (1 Bft) S-SO 157 0 min 0 UV-I 33 W/m 6,4 km/h (2 Bft)
27.02.2010 17:30 9,1 C 71 % 998,7 hPa 0,0 mm 1,6 km/h (1 Bft) S-SO 157 0 min 0 UV-I 19 W/m 6,4 km/h (2 Bft)
27.02.2010 17:40 9,1 C 70 % 998,6 hPa 0,0 mm 1,6 km/h (1 Bft) O-SO 112 0 min 0 UV-I 14 W/m 8,0 km/h (2 Bft)
27.02.2010 17:50 9,1 C 70 % 998,5 hPa 0,0 mm 1,6 km/h (1 Bft) O-SO 112 10 min 0 UV-I 11 W/m 4,8 km/h (1 Bft)
27.02.2010 18:00 8,9 C 70 % 998,3 hPa 0,0 mm 0,0 km/h (0 Bft) S-SO 157 0 min 0 UV-I 9 W/m 4,8 km/h (1 Bft)
27.02.2010 18:10 8,8 C 70 % 998,3 hPa 0,0 mm 1,6 km/h (1 Bft) SO 135 0 min 0 UV-I 0 W/m 4,8 km/h (1 Bft)
27.02.2010 18:20 8,7 C 70 % 998,3 hPa 0,0 mm 1,6 km/h (1 Bft) S 180 0 min 0 UV-I 0 W/m 9,7 km/h (2 Bft)
27.02.2010 18:30 8,5 C 70 % 998,2 hPa 0,0 mm 1,6 km/h (1 Bft) S-SO 157 0 min 0 UV-I 0 W/m 8,0 km/h (2 Bft)
27.02.2010 18:40 8,3 C 70 % 998,0 hPa 0,0 mm 1,6 km/h (1 Bft) S-SO 157 0 min 0 UV-I 0 W/m 9,7 km/h (2 Bft)
27.02.2010 18:50 8,2 C 70 % 997,8 hPa 0,0 mm 1,6 km/h (1 Bft) S-SO 157 0 min 0 UV-I 0 W/m 14,5 km/h (3 Bft)
27.02.2010 19:00 8,1 C 71 % 997,8 hPa 0,0 mm 1,6 km/h (1 Bft) O-SO 112 0 min 0 UV-I 0 W/m 9,7 km/h (2 Bft)
27.02.2010 19:10 8,0 C 71 % 997,8 hPa 0,0 mm 3,2 km/h (1 Bft) S-SO 157 0 min 0 UV-I 0 W/m 11,3 km/h (2 Bft)
27.02.2010 19:20 7,9 C 71 % 997,6 hPa 0,0 mm 1,6 km/h (1 Bft) SO 135 0 min 0 UV-I 0 W/m 11,3 km/h (2 Bft)
27.02.2010 19:30 8,0 C 71 % 997,5 hPa 0,0 mm 3,2 km/h (1 Bft) S-SO 157 0 min 0 UV-I 0 W/m 12,9 km/h (3 Bft)
27.02.2010 19:40 8,0 C 71 % 997,3 hPa 0,0 mm 4,8 km/h (1 Bft) SO 135 0 min 0 UV-I 0 W/m 16,1 km/h (3 Bft)
27.02.2010 19:50 8,1 C 71 % 997,1 hPa 0,0 mm 4,8 km/h (1 Bft) O-SO 112 0 min 0 UV-I 0 W/m 17,7 km/h (3 Bft)
27.02.2010 20:00 8,1 C 71 % 997,0 hPa 0,0 mm 4,8 km/h (1 Bft) S-SO 157 0 min 0 UV-I 0 W/m 17,7 km/h (3 Bft)
27.02.2010 20:10 8,1 C 71 % 996,9 hPa 0,0 mm 3,2 km/h (1 Bft) SO 135 0 min 0 UV-I 0 W/m 12,9 km/h (3 Bft)
27.02.2010 20:20 8,1 C 70 % 996,7 hPa 0,0 mm 4,8 km/h (1 Bft) S-SO 157 0 min 0 UV-I 0 W/m 16,1 km/h (3 Bft)
27.02.2010 20:30 7,9 C 70 % 996,7 hPa 0,0 mm 3,2 km/h (1 Bft) S-SO 157 0 min 0 UV-I 0 W/m 14,5 km/h (3 Bft)
27.02.2010 20:40 7,9 C 69 % 996,5 hPa 0,0 mm 3,2 km/h (1 Bft) S-SO 157 0 min 0 UV-I 0 W/m 14,5 km/h (3 Bft)
27.02.2010 20:50 7,8 C 69 % 996,4 hPa 0,0 mm 3,2 km/h (1 Bft) SO 135 0 min 0 UV-I 0 W/m 14,5 km/h (3 Bft)
27.02.2010 21:00 7,7 C 69 % 996,3 hPa 0,0 mm 3,2 km/h (1 Bft) SO 135 0 min 0 UV-I 0 W/m 8,0 km/h (2 Bft)
27.02.2010 21:10 7,6 C 69 % 996,1 hPa 0,0 mm 3,2 km/h (1 Bft) SO 135 0 min 0 UV-I 0 W/m 11,3 km/h (2 Bft)
27.02.2010 21:20 7,5 C 69 % 995,9 hPa 0,0 mm 3,2 km/h (1 Bft) S-SO 157 0 min 0 UV-I 0 W/m 12,9 km/h (3 Bft)
27.02.2010 21:30 7,4 C 69 % 995,8 hPa 0,0 mm 1,6 km/h (1 Bft) SO 135 0 min 0 UV-I 0 W/m 9,7 km/h (2 Bft)
27.02.2010 21:40 7,3 C 69 % 995,6 hPa 0,0 mm 1,6 km/h (1 Bft) O-SO 112 0 min 0 UV-I 0 W/m 11,3 km/h (2 Bft)
27.02.2010 21:50 7,2 C 70 % 995,5 hPa 0,0 mm 1,6 km/h (1 Bft) S-SO 157 0 min 0 UV-I 0 W/m 9,7 km/h (2 Bft)
27.02.2010 22:00 7,0 C 70 % 995,4 hPa 0,0 mm 3,2 km/h (1 Bft) S-SO 157 0 min 0 UV-I 0 W/m 14,5 km/h (3 Bft)
27.02.2010 22:10 6,9 C 70 % 995,4 hPa 0,0 mm 3,2 km/h (1 Bft) SO 135 0 min 0 UV-I 0 W/m 11,3 km/h (2 Bft)
27.02.2010 22:20 6,8 C 70 % 995,3 hPa 0,0 mm 4,8 km/h (1 Bft) SO 135 0 min 0 UV-I 0 W/m 11,3 km/h (2 Bft)
27.02.2010 22:30 6,8 C 69 % 995,1 hPa 0,0 mm 3,2 km/h (1 Bft) O-SO 112 0 min 0 UV-I 0 W/m 9,7 km/h (2 Bft)
27.02.2010 22:40 6,8 C 68 % 994,9 hPa 0,0 mm 3,2 km/h (1 Bft) S-SO 157 0 min 0 UV-I 0 W/m 11,3 km/h (2 Bft)
27.02.2010 22:50 6,8 C 68 % 994,8 hPa 0,0 mm 3,2 km/h (1 Bft) O-SO 112 0 min 0 UV-I 0 W/m 9,7 km/h (2 Bft)
27.02.2010 23:00 6,8 C 69 % 994,4 hPa 0,0 mm 1,6 km/h (1 Bft) O-SO 112 0 min 0 UV-I 0 W/m 8,0 km/h (2 Bft)
27.02.2010 23:10 6,7 C 69 % 994,2 hPa 0,0 mm 3,2 km/h (1 Bft) O-SO 112 0 min 0 UV-I 0 W/m 11,3 km/h (2 Bft)
27.02.2010 23:20 6,7 C 69 % 994,0 hPa 0,0 mm 3,2 km/h (1 Bft) O-SO 112 0 min 0 UV-I 0 W/m 9,7 km/h (2 Bft)
27.02.2010 23:30 6,6 C 69 % 993,8 hPa 0,0 mm 1,6 km/h (1 Bft) O-SO 112 0 min 0 UV-I 0 W/m 8,0 km/h (2 Bft)
27.02.2010 23:40 6,6 C 70 % 993,6 hPa 0,0 mm 1,6 km/h (1 Bft) O-SO 112 0 min 0 UV-I 0 W/m 8,0 km/h (2 Bft)
27.02.2010 23:50 6,7 C 69 % 993,4 hPa 0,0 mm 3,2 km/h (1 Bft) SO 135 0 min 0 UV-I 0 W/m 9,7 km/h (2 Bft)
_ Min-Zeit 07:20 16:00 23:50 - 16:30 - - - - - 16:30
Minimum _ 4,2 C 68 % 993,4 hPa - 0,0 km/h (0 Bft) - - - - - 1,6 km/h (1 Bft)
_ Max-Zeit 16:40 00:00 12:20 00:00 01:00 - - 09:00 10:50 11:00 00:40
Maximum _ 9,9 C 84 % 1001,6 hPa 0,0 mm 11,3 km/h
SW (2 Bft)
- - 10 min 2 UV-I 499 W/m 30,6 km/h
W-SW (5 Bft)
Durchschnitt _ 6,8 C 73 % 999,3 hPa #0,0 mm 4,9 km/h (1 Bft) SW - #2:00 h 1 UV-I 138 W/m 16,3 km/h (3 Bft)